Weather Roundup
Issued by NWS

Home | Current Version | Previous Version | Graphics & Text | Print | Product List | Glossary Off
Versions: 1 2 3 4 5 6 7 8 9 10 11 12 13 14 15 16 17 18 19 20 21 22 23 24 25 26 27 28 29 30 31 32 33 34 35 36 37 38 39 40 41 42 43 44 45 46 47 48 49 50

000
NZUS93 KARX 030259
HRRWXR

CURRENT HOURLY OBSERVATIONS ACROSS
MUCH OF THE UPPER MISSISSIPPI VALLEY
NATIONAL WEATHER SERVICE LA CROSSE WI
1000 PM CDT TUE JUN 02 2015


...SOUTHEAST MINNESOTA...


CITY           SKY/WX    TMP DP  RH WIND       PRES   REMARKS
ROCHESTER      PTCLDY    63  50  62 S10       29.98R
ROCHESTER/MAYO FAIR      66  50  56 SE6       29.97R
WINONA         CLEAR     63  52  67 SE6       29.98S
AUSTIN         PTCLDY    64  52  63 S8        29.96R
ALBERT LEA     CLEAR     66  52  59 S10G20    29.95R
DODGE CENTER   PTCLDY    66  52  59 S12       29.96S
PRESTON        PTCLDY    63  50  63 SE8       29.99S
OWATONNA       PTCLDY    68  52  56 S9        29.94R
FARIBAULT      PTCLDY    68  54  60 SE8       29.93S
$$

...ELSEWHERE IN MINNESOTA...


CITY           SKY/WX    TMP DP  RH WIND       PRES   REMARKS
MINNEAPOLIS    PTCLDY    69  52  54 SE12      29.90F
INTNL FALLS    CLOUDY    59  56  89 SE9       29.85F
DULUTH         LGT RAIN  54  43  66 E7        29.94S
RED WING       PTCLDY    66  52  59 SE6       29.94S
REDWOOD FALLS  CLEAR     72  54  53 S18       29.85R
MANKATO        CLEAR     70  52  52 S14G22    29.91R
WORTHINGTON    CLEAR     68  54  60 S17       29.89R
FAIRMONT       CLEAR     66  50  55 S15G21    29.91R
$$

...SOUTHWEST WISCONSIN...


CITY           SKY/WX    TMP DP  RH WIND       PRES   REMARKS
LA CROSSE      PTCLDY    65  49  56 S7        29.99S
PRAIRIE DU CHI PTCLDY    63  49  59 E5        30.01S
BOSCOBEL       PTCLDY    56  51  84 CALM      30.03R
LONE ROCK      NOT AVBL
PLATTEVILLE    PTCLDY    64  49  56 SE6       30.03S
FORT MC COY    CLEAR     56  48  76 CALM      30.03S
VIROQUA        FAIR      62  48  60 SE7       30.02F
WIS DELLS      PTCLDY    59  46  61 CALM      30.04S
$$

...ELSEWHERE IN WISCONSIN...


CITY           SKY/WX    TMP DP  RH WIND       PRES   REMARKS
MILWAUKEE      MOCLDY    51  44  77 SE5       30.10R
MADISON        PTCLDY    63  46  54 S5        30.05R
GREEN BAY      PTCLDY    56  43  61 SE5       30.07R
EAU CLAIRE     NOT AVBL
BLACK RVR FLS  FAIR      57  47  70 CALM      30.00S
MEDFORD        PTCLDY    57  44  61 SE3       30.02S
WAUSAU         PTCLDY    61  44  53 SE6       30.03R
WIS RAPIDS     CLEAR     61  43  51 S5        30.05R
MARSHFIELD     CLEAR     61  44  53 S5        30.03R
RICE LAKE      CLOUDY    66  51  57 SE9       29.98S
$$

...NORTHEAST IOWA...


CITY           SKY/WX    TMP DP  RH WIND       PRES   REMARKS
DECORAH        CLOUDY    64  50  59 SE7       29.99S
MASON CITY     PTCLDY    65  54  67 S15       29.98R
CHARLES CITY   MOCLDY    66  54  63 S10       29.98S
OELWEIN        MOCLDY    64  52  63 S9        30.01S
$$

...ELSEWHERE IN IOWA...


CITY           SKY/WX    TMP DP  RH WIND       PRES   REMARKS
DES MOINES     CLOUDY    66  55  67 S12       29.97S
IOWA CITY      PTCLDY    62  54  74 CALM      30.03S
FORT DODGE     PTCLDY    64  54  68 SE8       29.95S
$$

...NORTHERN ILLINOIS...


CITY           SKY/WX    TMP DP  RH WIND       PRES   REMARKS
CHICAGO-OHARE  MOCLDY    57  45  64 E6        30.10R
CHICAGO-MIDWAY MOCLDY    59  46  62 E8        30.10R
MOLINE         PTCLDY    63  52  67 S6        30.03R
ROCKFORD       MOCLDY    63  45  51 SE8       30.07R
PEORIA         PTCLDY    63  54  72 CALM      30.06R
$$

NOTE: "FAIR" INDICATES FEW OR NO CLOUDS BELOW 12,000 FEET WITH NO
SIGNIFICANT WEATHER AND/OR OBSTRUCTIONS TO VISIBILITY. WIND
SPEEDS ARE IN MILES-PER-HOUR.



USA.gov is the U.S. government's official web portal to all federal, state and local government web resources and services.